Regional Weather Roundup
Issued by NWS

Home | Current Version | Previous Version | Graphics & Text | Print | Product List | Glossary Off
Versions: 1 2 3 4 5 6 7 8 9 10 11 12 13 14 15 16 17 18 19 20 21 22 23 24 25 26 27 28 29 30 31 32 33 34 35 36 37 38 39 40 41 42 43 44 45 46 47 48 49 50

828
ASUS43 KMKX 191010
RWRWI

WISCONSIN REGIONAL WEATHER ROUNDUP
NATIONAL WEATHER SERVICE MILWAUKEE/SULLIVAN WI
500 AM CDT THU APR 19 2018

NOTE: "FAIR" INDICATES FEW OR NO CLOUDS BELOW 12,000 FEET WITH NO
SIGNIFICANT WEATHER AND/OR OBSTRUCTIONS TO VISIBILITY.

WIZ001-002-006>008-014>016-023>028-191100-
NORTHWEST WISCONSIN

CITY           SKY/WX    TMP DP  RH WIND       PRES   REMARKS
SUPERIOR ARPT  FAIR      21  17  84 SW3       30.32R
ASHLAND        FAIR      22  14  71 W3        30.31R
HAYWARD        FAIR      15  11  83 CALM      30.30R
SIREN          FAIR      20  15  80 CALM      30.33R
CUMBERLAND     FAIR      25  12  58 CALM      30.29R
RICE LAKE      FAIR      22  15  75 CALM      30.32R
CHETEK         FAIR      23  16  73 CALM      30.30R
LADYSMITH      FAIR      22  14  71 NW7       30.29R WCI  13
EAU CLAIRE     FAIR      25  15  66 CALM      30.29R
MENOMONIE      FAIR      27  16  63 W6        30.31R WCI  20
NEW RICHMOND   FAIR      19  13  75 NW3       30.33R
OSCEOLA        FAIR      20  14  76 CALM      30.37R
$$

WIZ003>005-009-010-017-018-191100-
NORTH CENTRAL WISCONSIN

CITY           SKY/WX    TMP DP  RH WIND       PRES   REMARKS
MANITOWISH WTR FAIR      19  16  88 NW3       30.24R
ARBOR VITAE    FAIR      22  17  81 CALM      30.23R
WOODRUFF       FAIR      22  17  81 CALM      30.23R
RHINELANDER    FAIR      27  18  69 N5        30.22R WCI  22
EAGLE RIVER    FAIR      20  15  83 CALM      30.20R
LAND O LAKES   FAIR      28  21  75 N6        30.23R WCI  21
PHILLIPS       FAIR      21  16  79 CALM      30.25R
TOMAHAWK       FAIR      25  15  65 NW5       30.24R WCI  20
MEDFORD        FAIR      25  14  61 N6        30.23R WCI  18
MERRILL          N/A     24  15  69 N3        30.23R
$$

WIZ029-030-035-036-043>047-191100-
CENTRAL WISCONSIN

CITY           SKY/WX    TMP DP  RH WIND       PRES   REMARKS
WAUSAU         FAIR      26  16  65 NW7       30.20R WCI  18
MOSINEE        FAIR      28  18  64 NW12      30.22R WCI  18
MARSHFIELD     FAIR      24  13  62 NW7       30.22R WCI  16
STEVENS POINT  FAIR      27  15  62 NW6       30.22R WCI  20
WAUPACA        FAIR      30  17  58 NW5       30.20R WCI  25
WAUTOMA        FAIR      18  14  84 W5        30.22R WCI  11
WISC RAPIDS    FAIR      23  13  65 NW5       30.24R WCI  17
CAMP DOUGLAS   FAIR      20  19  96 W8        30.24R WCI  10
$$

WIZ011>013-019>022-031-037>040-048>050-191100-
NORTHEAST WISCONSIN

CITY           SKY/WX    TMP DP  RH WIND       PRES   REMARKS
ANTIGO         FAIR      24  15  68 N6        30.20R WCI  17
SHAWANO        FAIR      33  18  55 N6        30.18R WCI  27
OCONTO         FAIR      31  19  61 N6        30.18R WCI  25
STURGEON BAY   FAIR      31  24  75 N14       30.16R WCI  21
GREEN BAY      FAIR      32  20  61 N12       30.17R WCI  23
MANITOWOC      FAIR      31  22  69 N12       30.15R WCI  22
APPLETON       FAIR      30  16  55 N10       30.16R WCI  21
CLINTONVILLE   FAIR      32  16  51 N5        30.19R WCI  27
OSHKOSH        FAIR      29  18  63 NW8       30.17R WCI  21
$$

WIZ032>034-041-042-053>061-191100-
SOUTHWEST WISCONSIN

CITY           SKY/WX    TMP DP  RH WIND       PRES   REMARKS
LA CROSSE      FAIR      25  23  92 N8        30.29R WCI  16
SPARTA           N/A      9   7  93 CALM      30.28R FOG
VIROQUA        FAIR      25  24  95 N5        30.24R WCI  19
BOSCOBEL       FAIR      26  23  88 CALM      30.27R
PRAIRIE DU CHI FAIR      27  26  96 NW5       30.26R WCI  22
PLATTEVILLE    FAIR      27  26  98 NW8       30.22R WCI  18
$$

WIZ056-057-062-063-064-067-068-191100-
SOUTH CENTRAL WISCONSIN

CITY           SKY/WX    TMP DP  RH WIND       PRES   REMARKS
REEDSBURG      FAIR      23  22  97 CALM      30.23R
BARABOO/DELLS  FAIR      22  22  97 CALM      30.22R
LONE ROCK      FAIR      24  23  96 W7        30.24R WCI  16
MINERAL POINT  FAIR      28  28 100 NW9       30.21R WCI  20
MADISON        FAIR      25  21  85 N8        30.19R WCI  16
MIDDLETON      FAIR      27  20  75 N9        30.20R WCI  18
WATERTOWN      FAIR      25  21  87 N5        30.16R WCI  19
MONROE         FAIR      28  25  86 NW7       30.18R WCI  21
JANESVILLE     FAIR      30  25  80 N7        30.17R WCI  23
$$

WIZ051-052-058>065-066-070>072-191100-
SOUTHEAST WISCONSIN

CITY           SKY/WX    TMP DP  RH WIND       PRES   REMARKS
MILWAUKEE      FAIR      32  23  69 N10       30.13R WCI  24
WAUKESHA       FAIR      27  19  74 NW3       30.15R
MILWAUKEE/TIMM FAIR      28  19  69 N7        30.15R WCI  21
RACINE         FAIR      32  24  72 NW9       30.14R WCI  24
BURLINGTON     FAIR      28  22  78 N6        30.14R WCI  22
KENOSHA        SLEET     32  23  69 N8        30.12R WCI  25
FOND DU LAC    FLURRIES  24  14  65 NW8       30.17R WCI  15
SHEBOYGAN      FAIR      29  20  69 N8        30.14R WCI  21
WEST BEND      FAIR      27  21  80 NW7       30.15R WCI  19
JUNEAU         FAIR      22  16  77 N8        30.18R WCI  13
$$

LSZ147-162-191100-
LAKE SUPERIOR

STATION/POSITION TIME  TEMP    WIND        PRES    WAVE
                       AIR SEA DIR/SP/G            HT/PER
                 (UTC) (F)     (DEG/KT/KT) (MB)    (FT/S)
DEVILS ISLAND    1000   36     340/  8/  9 1027.3R
SAXON HARBOR     0940   20     200/  6/  7 1025.4R
$$

LMZ867-665-643>646-191100-
LAKE MICHIGAN

STATION/POSITION TIME  TEMP    WIND        PRES    WAVE
                       AIR SEA DIR/SP/G            HT/PER
                 (UTC) (F)     (DEG/KT/KT) (MB)    (FT/S)
NORTHPORT PIER   0940   33                 1020.7R
KEWAUNEE LAKESHO 0948   32     330/  6/ 11 1020.1R
SHEBOYGAN LAKESH 1000   34     330/ 12/ 16 1021.4R
PORT WASHINGTON  0930   30     310/  5/  9 1021.7R
MILWAUKEE LAKESH 0950   32     330/ 10/ 12   N/A
KENOSHA   LAKESH 1000   33                 1020.0
$$

TC  - TEMPERATURE IN CELSIUS
VSB - VISIBILITY IN STATUTE MILES
WCI - WIND CHILL INDEX
HX  - HEAT INDEX





USA.gov is the U.S. government's official web portal to all federal, state and local government web resources and services.